Helicity
346 325 345 280 212 164 190 163 182 122 115 120 110 112 128 118 101 102 87 86 77 73 63 54 35 22 26 42 36 57 67 72 50 69 26 47 38 30 23 8 -9 54 80
316 329 305 264 207 155 169 171 117 121 121 120 125 142 126 109 107 107 104 85 83 82 69 61 49 29 33 36 28 25 51 54 54 52 26 24 26 -16 -13 -2 -17 -9 2
318 280 239 186 144 192 195 154 133 144 134 140 163 150 129 118 122 104 92 86 83 75 64 58 55 49 50 32 21 23 54 24 20 24 33 33 11 16 -23 -18 -28 -28 -21
299 231 244 162 143 218 184 156 130 124 143 164 144 131 134 150 128 113 102 87 73 63 59 59 49 39 44 43 32 29 44 27 32 8 -9 -1 25 22 3 -3 -15 -34 -38
351 258 221 210 290 241 205 161 140 161 163 130 113 122 150 160 149 139 124 107 97 84 81 67 58 59 80 73 36 39 47 23 22 21 10 -9 -13 5 38 13 4 1 -7
303 282 270 265 277 275 200 198 217 219 235 173 231 269 227 154 176 213 135 144 146 116 94 83 70 77 69 76 78 83 64 24 25 8 8 -17 -33 -19 -5 -23 14 25 -1
340 241 302 336 309 257 235 287 278 239 228 305 284 250 197 164 186 183 159 140 140 134 126 103 83 75 72 45 59 65 71 80 62 5 3 3 -13 -30 -21 -23 -18 -26 -19
249 244 310 317 305 330 348 318 288 231 223 244 211 178 182 165 165 163 150 127 137 143 128 97 87 93 84 66 48 31 18 13 6 -6 -18 -17 -2 -12 -3 -4 -4 1 1
188 245 261 242 316 342 333 303 245 224 202 199 173 165 165 140 126 121 108 105 113 112 103 107 114 111 103 77 51 52 47 31 22 40 37 45 51 74 66 47 90 58 2
221 263 302 269 309 318 310 272 240 225 246 227 193 167 146 139 111 100 112 89 83 89 72 113 152 127 123 110 97 73 68 49 38 27 15 22 37 64 116 84 55 54 30
337 328 206 214 299 303 270 245 233 227 232 217 189 157 137 134 113 108 134 127 93 88 100 122 113 128 121 116 108 95 84 61 52 38 26 25 30 31 41 47 54 34 21
308 319 286 272 295 271 239 224 202 212 202 188 167 144 126 122 131 137 157 184 157 124 131 120 105 123 130 117 115 117 102 77 78 72 55 43 38 34 20 29 24 4 -21
299 270 275 266 235 238 235 224 212 215 184 145 133 120 124 138 147 150 154 164 193 205 179 133 112 93 75 121 127 140 127 124 102 92 78 52 38 35 44 16 9 -26 -60
387 297 274 288 259 240 241 221 210 206 169 143 144 137 199 159 146 130 145 167 178 172 136 101 83 81 79 82 85 118 106 111 108 99 81 59 70 61 78 83 72 36 33
351 306 276 271 257 250 222 208 189 177 158 165 173 159 198 154 135 112 117 123 108 117 120 122 95 84 65 73 108 113 121 117 116 105 103 100 83 104 84 82 92 90 71
299 262 256 247 222 214 209 241 244 238 233 240 235 212 233 154 159 152 180 183 177 149 128 107 139 134 138 128 125 126 133 136 125 108 107 114 109 99 100 82 99 111 86
259 230 222 205 202 200 207 234 289 270 243 232 240 228 223 225 213 196 196 199 177 159 138 138 152 153 148 161 159 162 142 126 110 120 113 110 127 113 109 103 89 105 125
184 189 196 185 193 182 202 225 221 243 229 232 223 225 212 202 196 198 191 193 193 148 142 169 173 160 158 171 172 172 162 143 129 120 118 109 123 127 104 116 72 79 96
163 180 165 178 165 168 222 198 183 183 177 196 238 241 201 177 171 177 164 183 167 149 177 203 193 183 192 204 217 200 187 155 128 128 111 117 116 134 102 99 101 90 108
197 200 181 215 198 217 231 183 189 174 149 208 197 218 236 185 189 191 187 176 209 196 189 196 194 195 194 197 165 137 127 92 83 121 119 111 113 116 107 97 89 89 92
262 254 237 254 244 249 250 241 224 182 183 206 155 139 153 155 208 156 140 142 158 182 204 202 194 194 185 167 143 129 159 154 153 132 136 137 108 106 102 97 94 93 101
274 291 290 260 237 232 206 215 221 200 186 179 152 186 151 150 137 123 105 118 156 186 176 179 178 152 131 123 121 148 151 145 124 116 135 102 99 96 96 95 96 106 109
218 223 244 218 208 196 193 195 188 166 145 136 220 231 173 137 128 125 160 202 207 207 205 192 176 178 191 186 164 160 140 124 177 183 154 124 111 121 120 119 119 120 118
174 153 169 179 176 157 152 161 149 151 152 180 244 219 176 140 142 175 212 208 214 211 185 154 141 157 145 136 147 163 207 196 149 139 131 128 137 142 141 139 136 137 122
157 142 166 170 162 145 145 160 189 191 170 176 205 197 172 145 133 160 212 237 219 179 161 159 163 195 184 173 171 213 218 224 186 152 107 110 136 122 101 116 126 122 122
155 124 124 137 126 131 138 141 154 150 141 148 166 173 159 124 111 161 253 238 209 190 183 161 155 168 166 166 194 197 190 182 157 141 120 123 120 128 150 160 145 127 109
Wind_Speed
28 25 20 15 10 7 15 24 22 24 27 29 31 32 36 38 40 41 42 45 46 49 53 57 60 62 62 63 62 57 57 52 53 48 54 52 50 48 45 47 53 52 48
27 24 19 13 7 11 19 17 18 23 26 27 29 31 34 35 38 40 41 42 45 48 51 54 58 60 63 63 62 64 59 57 52 51 53 53 51 46 45 45 48 48 46
27 24 19 12 12 15 12 12 17 22 24 26 29 31 33 35 37 37 38 40 42 44 46 50 55 59 63 62 62 64 61 60 58 55 51 50 50 49 43 43 44 47 42
30 29 21 12 10 9 7 11 15 18 21 25 26 29 31 35 35 36 36 36 37 41 42 47 48 55 60 62 61 63 63 59 59 59 57 53 53 51 46 45 43 45 43
29 27 18 12 8 7 7 10 13 17 20 21 23 26 31 34 35 36 34 35 36 38 42 44 47 49 55 59 59 61 61 59 59 59 58 57 54 52 51 49 43 39 44
32 26 19 11 9 7 6 8 13 17 23 23 25 30 33 34 32 36 32 34 38 38 40 42 44 48 47 52 56 59 60 57 58 58 58 57 55 52 51 52 49 43 42
29 25 22 14 9 6 3 9 13 17 20 24 26 28 30 30 30 31 32 33 35 38 40 41 43 46 47 46 49 53 55 56 56 55 57 59 57 56 53 51 50 48 44
27 24 20 13 6 4 5 8 13 16 18 20 22 23 25 26 26 27 29 31 34 37 38 39 41 44 45 44 45 46 48 51 52 53 54 56 58 58 55 52 48 41 45
27 23 18 13 9 7 7 8 11 15 17 18 19 20 22 22 20 23 26 28 31 34 37 38 40 43 43 40 42 44 47 49 48 51 52 55 58 60 57 51 51 45 45
26 22 17 11 12 12 7 7 11 13 16 18 19 19 18 18 19 22 27 23 25 27 30 37 40 41 42 41 42 43 45 48 49 50 52 54 55 58 58 55 52 49 47
22 20 17 13 12 10 6 8 8 11 14 17 18 18 16 17 19 21 28 25 23 23 27 32 36 38 39 40 40 41 43 45 46 48 50 53 55 54 55 54 53 51 49
18 18 18 17 13 7 6 5 6 9 11 13 15 16 15 16 19 22 25 26 28 24 26 28 30 34 38 38 39 41 41 40 43 46 49 52 55 56 53 49 48 47 47
16 13 17 11 9 7 7 6 7 7 8 10 11 14 13 14 19 21 23 23 30 25 26 27 27 29 29 36 39 42 44 44 43 45 48 49 50 50 53 51 42 42 43
16 13 12 10 6 6 9 10 10 5 6 7 10 12 12 13 18 20 21 21 23 25 24 24 25 27 28 30 32 38 39 42 44 46 47 48 50 49 52 52 51 49 49
12 9 8 7 7 10 12 9 13 11 8 8 11 12 12 15 16 14 16 16 18 19 19 22 25 25 26 28 34 37 42 43 45 46 48 51 51 52 51 51 50 50 49
10 9 9 9 10 11 10 11 21 12 15 19 17 15 21 17 12 13 17 20 20 21 24 24 27 30 31 32 34 35 40 43 46 46 48 51 53 52 53 51 51 51 50
10 9 8 7 6 7 10 12 15 18 17 19 18 16 15 14 15 17 20 22 23 23 27 26 27 29 31 33 35 38 39 42 44 46 48 50 52 53 52 53 51 53 53
8 7 7 5 6 7 9 10 13 16 17 20 19 17 15 16 18 20 22 25 27 25 29 26 28 29 31 32 35 37 39 41 43 45 47 48 50 53 51 52 50 53 53
4 4 4 6 7 8 11 12 14 15 19 20 20 22 17 17 18 21 20 24 25 25 27 28 28 29 31 33 35 37 40 42 42 44 45 46 48 51 49 49 51 51 53
2 4 5 9 10 10 12 14 16 17 19 20 21 22 18 17 19 22 25 27 32 28 26 26 27 29 30 31 32 34 35 36 38 41 44 44 46 48 48 49 50 51 53
6 6 8 11 11 13 15 18 19 19 22 22 22 17 13 18 19 22 24 24 28 28 26 27 26 29 30 32 32 32 37 37 40 41 42 43 44 46 46 47 49 51 51
9 7 10 14 14 15 17 18 22 23 24 22 21 15 11 17 19 20 21 22 24 26 24 26 26 27 28 29 31 32 34 36 36 36 38 40 42 44 44 46 47 49 52
10 11 14 14 15 15 16 20 21 20 21 21 19 14 13 18 20 21 20 20 22 25 26 25 26 26 29 32 33 35 32 32 33 36 39 40 42 44 45 49 49 50 50
13 13 15 15 14 15 18 19 18 18 19 19 17 14 15 17 20 20 19 19 21 23 24 26 26 24 25 28 30 31 33 32 33 33 34 38 42 42 45 48 49 50 51
14 16 18 16 17 17 17 19 18 17 18 17 16 14 17 18 18 19 18 18 19 22 23 23 24 25 24 28 29 28 28 30 32 34 35 36 39 42 42 44 47 49 51
17 17 17 17 18 19 18 18 17 16 16 16 16 16 15 17 17 17 16 18 20 22 21 22 23 23 24 25 27 26 29 31 34 35 36 39 39 42 44 46 48 49 51
Wind_Direction
222 225 228 240 252 289 322 332 350 352 353 357 359 4 4 5 5 8 9 8 7 6 6 2 359 360 2 5 8 16 12 13 2 3 358 351 343 336 326 333 352 348 345
218 217 216 219 239 291 324 341 350 352 356 1 7 9 5 7 8 8 9 11 8 8 8 4 1 360 3 5 9 5 18 19 13 2 359 355 345 341 335 337 343 345 345
216 211 204 217 265 302 324 340 348 357 3 8 7 5 5 7 8 11 12 11 12 14 12 7 5 2 2 3 7 4 13 18 21 12 7 13 357 344 336 343 344 351 341
209 211 222 240 285 295 311 335 353 4 11 9 9 8 7 6 9 9 12 15 18 17 14 8 10 7 5 6 7 5 4 18 18 13 6 355 351 344 343 338 339 348 345
208 212 226 258 270 276 309 345 1 8 12 12 12 13 10 6 3 6 14 16 15 15 9 7 8 10 10 10 11 5 6 9 16 18 9 3 351 347 338 330 337 348 348
199 215 232 234 250 278 304 356 1 7 359 358 5 5 5 5 9 10 18 14 11 11 6 2 3 1 10 11 11 13 12 10 11 15 16 3 351 342 337 351 345 342 342
219 223 228 232 244 266 330 346 348 351 354 356 1 4 5 10 15 16 18 15 13 9 6 3 359 358 358 6 8 10 11 13 15 13 10 6 0 345 337 349 0 2 354
211 210 218 220 226 275 316 332 338 349 351 353 1 8 10 14 22 22 20 16 13 10 8 8 5 1 1 0 3 5 8 9 11 12 9 4 359 351 347 342 348 12 359
202 207 204 197 220 262 293 314 334 341 349 356 4 8 10 17 23 15 13 15 13 13 13 9 5 1 358 1 2 2 0 1 6 6 7 4 359 356 353 353 347 346 348
200 202 212 233 239 264 278 306 331 345 349 356 358 4 14 15 12 4 360 10 13 14 16 11 8 7 6 3 358 356 355 355 356 357 356 358 0 358 358 357 350 351 345
203 212 213 220 249 256 273 312 334 347 350 350 351 359 10 11 360 354 352 1 9 13 14 10 9 10 13 12 12 8 1 358 357 356 354 353 351 353 354 355 355 353 345
214 210 225 251 252 232 259 312 334 343 349 354 351 350 357 4 356 348 349 356 355 4 6 11 14 13 12 12 12 11 10 12 10 6 2 356 350 347 348 352 353 355 356
222 232 233 231 241 241 266 296 320 344 354 349 344 341 348 353 348 350 348 352 348 2 4 9 12 12 11 7 7 4 1 2 5 4 3 2 3 1 353 347 352 351 349
227 226 232 234 239 261 293 302 314 337 355 350 338 338 344 344 340 341 343 349 353 357 3 3 4 6 7 7 5 2 3 1 358 357 357 359 357 359 357 354 349 343 338
224 212 209 235 258 280 299 302 317 326 336 338 331 328 327 327 329 340 344 344 348 354 359 357 353 353 354 356 356 356 353 353 352 351 350 349 351 349 351 351 349 347 345
203 212 226 248 269 283 298 311 325 328 333 335 336 330 332 330 333 338 340 341 346 345 340 340 343 343 344 345 346 349 349 347 346 346 345 343 343 344 342 345 343 340 340
215 225 242 251 267 269 291 299 312 327 330 329 331 332 336 337 333 330 331 330 329 332 332 334 336 338 339 341 341 341 343 343 343 344 343 341 338 339 339 338 339 334 332
234 233 248 255 275 280 289 297 308 307 307 313 323 324 328 328 324 323 325 327 322 321 325 329 331 333 335 337 338 339 341 342 341 341 341 340 337 336 336 334 337 333 329
187 198 239 283 288 291 301 304 308 308 309 311 310 314 318 321 323 324 325 324 324 321 324 329 332 333 334 335 336 337 338 338 338 338 340 339 337 335 336 335 334 334 329
270 279 284 303 300 304 306 305 308 309 311 310 311 306 310 314 311 316 318 316 321 324 327 329 332 332 334 335 336 337 338 339 339 339 338 338 337 334 335 333 333 331 330
299 295 301 311 306 305 307 307 307 309 309 308 310 312 304 307 310 315 318 315 320 324 329 332 333 333 334 334 336 337 337 338 337 337 337 339 339 334 336 335 333 331 331
314 309 310 309 312 311 309 310 309 308 309 308 313 315 308 315 314 317 320 322 327 333 335 334 335 335 336 337 337 337 338 337 339 340 340 340 338 336 337 334 334 334 331
327 317 317 317 315 317 315 313 311 311 311 312 315 315 311 316 319 322 327 332 335 336 339 340 339 340 341 340 340 339 339 339 341 341 338 338 337 335 334 332 333 333 333
321 321 321 322 324 320 314 314 314 314 317 319 322 319 319 320 322 327 333 336 339 342 341 338 337 339 342 343 342 342 344 346 346 346 343 340 338 338 335 333 332 333 332
335 326 323 327 326 324 322 321 322 322 322 322 325 326 326 327 324 330 335 337 339 340 340 341 343 344 344 344 345 348 351 349 347 345 344 341 339 337 336 335 334 333 332
338 336 334 335 332 328 328 327 326 327 328 328 328 330 332 334 330 331 336 337 337 339 341 342 342 344 346 343 345 347 345 343 341 340 339 338 336 335 335 334 334 333 332